| time (UTC) | temp F | wind direction | speed MPH | gust MPH | rain 1hr in | rain 24hr in | rain mn in | humidity % | barometer mb |
| 20260906095506 | 77 | 87 | 0.0 | 1.0 | 0.00 | 0.00 | 0.00 | 86 | 1012.1 |
| 20260906095002 | 77 | 8 | 0.0 | 2.0 | 0.00 | 0.00 | 0.00 | 86 | 1012.2 |
| 20260906094500 | 77 | 137 | 0.0 | 1.0 | 0.00 | 0.00 | 0.00 | 86 | 1012.2 |
| 20260906093957 | 77 | 267 | 0.0 | 1.0 | 0.00 | 0.00 | 0.00 | 86 | 1011.9 |
| 20260906093453 | 77 | 313 | 0.0 | 1.0 | 0.00 | 0.00 | 0.00 | 85 | 1012.1 |
| 20260906092948 | 77 | 105 | 0.0 | 0.0 | 0.00 | 0.00 | 0.00 | 85 | 1012.1 |
| 20260906092448 | 77 | 228 | 0.0 | 1.0 | 0.00 | 0.00 | 0.00 | 85 | 1012.1 |
| 20260906091943 | 77 | 267 | 0.0 | 1.0 | 0.00 | 0.00 | 0.00 | 85 | 1011.9 |
| 20260906091439 | 77 | 243 | 2.0 | 2.0 | 0.00 | 0.00 | 0.00 | 85 | 1012.1 |
| 20260906090935 | 77 | 337 | 0.0 | 1.0 | 0.00 | 0.00 | 0.00 | 85 | 1012.3 |
| 20260906090430 | 77 | 237 | 1.0 | 2.0 | 0.00 | 0.00 | 0.00 | 84 | 1012.3 |
| 20260906085924 | 77 | 87 | 0.0 | 1.0 | 0.00 | 0.00 | 0.00 | 84 | 1012.2 |
| 20260906085423 | 77 | 54 | 0.0 | 2.0 | 0.00 | 0.00 | 0.00 | 84 | 1012.3 |
| 20260906084922 | 77 | 20 | 0.0 | 2.0 | 0.00 | 0.00 | 0.00 | 84 | 1012.2 |
| 20260906084418 | 77 | 17 | 0.0 | 0.0 | 0.00 | 0.00 | 0.00 | 84 | 1012.2 |
| 20260906083917 | 77 | 21 | 0.0 | 1.0 | 0.00 | 0.00 | 0.00 | 84 | 1012.2 |
| 20260906083413 | 77 | 13 | 0.0 | 1.0 | 0.00 | 0.00 | 0.00 | 84 | 1012.3 |
| 20260906082912 | 77 | 350 | 0.0 | 2.0 | 0.00 | 0.00 | 0.00 | 84 | 1012.6 |
| 20260906082407 | 77 | 35 | 0.0 | 0.0 | 0.00 | 0.00 | 0.00 | 84 | 1012.5 |
| 20260906081903 | 77 | 48 | 0.0 | 2.0 | 0.00 | 0.00 | 0.00 | 83 | 1012.6 |
| 20260906081358 | 77 | 60 | 0.0 | 0.0 | 0.00 | 0.00 | 0.00 | 82 | 1012.7 |
| 20260906080854 | 77 | 48 | 0.0 | 0.0 | 0.00 | 0.00 | 0.00 | 82 | 1012.8 |
| 20260906080351 | 77 | 215 | 0.0 | 0.0 | 0.00 | 0.00 | 0.00 | 82 | 1012.8 |
| 20260906075850 | 77 | 324 | 0.0 | 0.0 | 0.00 | 0.00 | 0.00 | 82 | 1012.9 |
| 20260906075350 | 77 | 115 | 0.0 | 0.0 | 0.00 | 0.00 | 0.00 | 82 | 1013.1 |
| 20260906074846 | 77 | 87 | 1.0 | 2.0 | 0.00 | 0.00 | 0.00 | 82 | 1012.8 |
| 20260906074340 | 77 | 115 | 0.0 | 0.0 | 0.00 | 0.00 | 0.00 | 82 | 1013.3 |
| 20260906073839 | 77 | 87 | 0.0 | 2.0 | 0.00 | 0.00 | 0.00 | 82 | 1013.1 |
| 20260906073334 | 77 | 257 | 1.0 | 1.0 | 0.00 | 0.00 | 0.00 | 82 | 1013.3 |
| 20260906072831 | 77 | 87 | 0.0 | 0.0 | 0.00 | 0.00 | 0.00 | 82 | 1013.6 |
| 20260906072326 | 77 | 111 | 0.0 | 1.0 | 0.00 | 0.00 | 0.00 | 82 | 1013.4 |
| 20260906071822 | 77 | 285 | 0.0 | 0.0 | 0.00 | 0.00 | 0.00 | 82 | 1013.5 |
| 20260906071321 | 77 | 285 | 0.0 | 1.0 | 0.00 | 0.00 | 0.00 | 83 | 1013.5 |
| 20260906070818 | 77 | 100 | 0.0 | 0.0 | 0.00 | 0.00 | 0.00 | 83 | 1013.7 |
| 20260906070314 | 77 | 48 | 0.0 | 2.0 | 0.00 | 0.00 | 0.00 | 83 | 1013.8 |
| 20260906065814 | 77 | 313 | 0.0 | 2.0 | 0.00 | 0.00 | 0.00 | 83 | 1013.7 |
| 20260906065309 | 77 | 286 | 1.0 | 1.0 | 0.00 | 0.00 | 0.00 | 83 | 1013.7 |
| 20260906064804 | 77 | 129 | 0.0 | 0.0 | 0.00 | 0.00 | 0.00 | 83 | 1013.9 |
| 20260906064300 | 77 | 129 | 0.0 | 1.0 | 0.00 | 0.00 | 0.00 | 83 | 1013.8 |
| 20260906063755 | 77 | 146 | 0.0 | 2.0 | 0.00 | 0.00 | 0.00 | 82 | 1014.0 |
| 20260906063250 | 78 | 100 | 2.0 | 3.0 | 0.00 | 0.00 | 0.00 | 82 | 1014.0 |
| 20260906062745 | 78 | 101 | 0.0 | 2.0 | 0.00 | 0.00 | 0.00 | 82 | 1014.1 |
| 20260906062244 | 78 | 349 | 2.0 | 3.0 | 0.00 | 0.00 | 0.00 | 82 | 1014.3 |
| 20260906061740 | 78 | 4 | 2.0 | 3.0 | 0.00 | 0.00 | 0.00 | 82 | 1014.0 |
| 20260906061237 | 78 | 328 | 1.0 | 2.0 | 0.00 | 0.00 | 0.00 | 82 | 1014.3 |
| 20260906060731 | 78 | 201 | 0.0 | 3.0 | 0.00 | 0.00 | 0.00 | 83 | 1014.3 |
| 20260906060229 | 79 | 290 | 0.0 | 1.0 | 0.00 | 0.00 | 0.00 | 83 | 1014.0 |
| 20260906055725 | 79 | 35 | 0.0 | 0.0 | 0.00 | 0.00 | 0.00 | 83 | 1013.9 |
| 20260906055220 | 79 | 335 | 0.0 | 1.0 | 0.00 | 0.00 | 0.00 | 83 | 1013.9 |
| 20260906054715 | 78 | 115 | 0.0 | 1.0 | 0.00 | 0.00 | 0.00 | 83 | 1013.9 |
| 20260906054215 | 78 | 60 | 0.0 | 1.0 | 0.00 | 0.00 | 0.00 | 83 | 1013.9 |
| 20260906053712 | 78 | 233 | 0.0 | 0.0 | 0.00 | 0.00 | 0.00 | 83 | 1014.2 |
| 20260906053207 | 78 | 240 | 0.0 | 1.0 | 0.00 | 0.00 | 0.00 | 84 | 1014.2 |
| 20260906052702 | 78 | 282 | 0.0 | 2.0 | 0.00 | 0.00 | 0.00 | 84 | 1014.3 |
| 20260906052159 | 78 | 121 | 2.0 | 3.0 | 0.00 | 0.00 | 0.00 | 84 | 1014.4 |
| 20260906051655 | 78 | 87 | 1.0 | 2.0 | 0.00 | 0.00 | 0.00 | 84 | 1014.4 |
| 20260906051154 | 78 | 306 | 1.0 | 1.0 | 0.00 | 0.00 | 0.00 | 84 | 1014.7 |
| 20260906050650 | 78 | 117 | 0.0 | 0.0 | 0.00 | 0.00 | 0.00 | 83 | 1014.5 |
| 20260906050145 | 78 | 228 | 0.0 | 0.0 | 0.00 | 0.00 | 0.00 | 83 | 1014.6 |
| 20260906045643 | 78 | 228 | 0.0 | 0.0 | 0.00 | 0.07 | 0.07 | 83 | 1014.8 |
| 20260906045139 | 78 | 122 | 0.0 | 1.0 | 0.00 | 0.07 | 0.07 | 83 | 1014.4 |
| 20260906044635 | 78 | 60 | 0.0 | 1.0 | 0.00 | 0.07 | 0.07 | 82 | 1014.6 |
| 20260906044130 | 78 | 87 | 0.0 | 1.0 | 0.00 | 0.07 | 0.07 | 82 | 1014.6 |
| 20260906043626 | 79 | 357 | 0.0 | 1.0 | 0.00 | 0.07 | 0.07 | 82 | 1014.5 |
| 20260906043121 | 79 | 240 | 0.0 | 0.0 | 0.00 | 0.07 | 0.07 | 80 | 1014.3 |
| 20260906042621 | 79 | 313 | 1.0 | 1.0 | 0.00 | 0.07 | 0.07 | 80 | 1014.4 |
| 20260906042115 | 79 | 155 | 0.0 | 1.0 | 0.00 | 0.07 | 0.07 | 80 | 1014.4 |
| 20260906041611 | 79 | 123 | 1.0 | 4.0 | 0.00 | 0.07 | 0.07 | 80 | 1014.3 |
| 20260906041106 | 78 | 154 | 2.0 | 2.0 | 0.00 | 0.07 | 0.07 | 81 | 1014.1 |
| 20260906040601 | 78 | 229 | 0.0 | 1.0 | 0.00 | 0.07 | 0.07 | 81 | 1014.2 |
| 20260906040051 | 78 | 75 | 0.0 | 0.0 | 0.00 | 0.07 | 0.07 | 80 | 1014.0 |
| 20260906035546 | 78 | 144 | 1.0 | 1.0 | 0.00 | 0.07 | 0.07 | 80 | 1013.9 |
| 20260906035042 | 78 | 238 | 0.0 | 1.0 | 0.00 | 0.07 | 0.07 | 80 | 1013.8 |
| 20260906034542 | 78 | 267 | 0.0 | 2.0 | 0.00 | 0.07 | 0.07 | 81 | 1013.9 |
| 20260906034037 | 77 | 292 | 0.0 | 2.0 | 0.00 | 0.07 | 0.07 | 82 | 1014.0 |
| 20260906033532 | 77 | 229 | 1.0 | 3.0 | 0.00 | 0.07 | 0.07 | 82 | 1014.1 |
| 20260906033022 | 77 | 281 | 0.0 | 1.0 | 0.00 | 0.07 | 0.07 | 83 | 1014.1 |
| 20260906032518 | 77 | 41 | 0.0 | 2.0 | 0.00 | 0.07 | 0.07 | 81 | 1014.1 |
| 20260906032013 | 77 | 83 | 2.0 | 3.0 | 0.00 | 0.07 | 0.07 | 82 | 1014.1 |
| 20260906031508 | 76 | 79 | 2.0 | 3.0 | 0.00 | 0.07 | 0.07 | 83 | 1014.0 |
| 20260906031003 | 76 | 288 | 0.0 | 2.0 | 0.00 | 0.07 | 0.07 | 84 | 1014.3 |
| 20260906030458 | 76 | 319 | 0.0 | 2.0 | 0.00 | 0.07 | 0.07 | 84 | 1014.2 |
| 20260906025958 | 75 | 61 | 0.0 | 2.0 | 0.00 | 0.07 | 0.07 | 84 | 1014.3 |
| 20260906025457 | 75 | 212 | 2.0 | 3.0 | 0.00 | 0.07 | 0.07 | 84 | 1014.4 |
| 20260906024955 | 75 | 237 | 3.0 | 5.0 | 0.00 | 0.07 | 0.07 | 84 | 1014.6 |
| 20260906024451 | 75 | 212 | 4.0 | 9.0 | 0.00 | 0.07 | 0.07 | 84 | 1014.5 |
| 20260906023950 | 75 | 248 | 4.0 | 7.0 | 0.07 | 0.07 | 0.07 | 83 | 1014.6 |
| 20260906023447 | 75 | 216 | 5.0 | 9.0 | 0.35 | 0.07 | 0.07 | 82 | 1014.4 |
| 20260906022946 | 76 | 237 | 8.0 | 14.0 | 0.35 | 0.06 | 0.06 | 79 | 1014.4 |
| 20260906022442 | 78 | 221 | 8.0 | 18.0 | 0.07 | 0.01 | 0.01 | 74 | 1014.4 |
| 20260906021937 | 80 | 222 | 9.0 | 19.0 | 0.00 | 0.00 | 0.00 | 69 | 1014.7 |
| 20260906021432 | 80 | 225 | 7.0 | 20.0 | 0.00 | 0.00 | 0.00 | 67 | 1014.5 |
| 20260906020926 | 81 | 240 | 7.0 | 21.0 | 0.00 | 0.00 | 0.00 | 68 | 1014.4 |
| 20260906020421 | 83 | 236 | 11.0 | 20.0 | 0.00 | 0.00 | 0.00 | 68 | 1014.2 |
| 20260906015915 | 86 | 223 | 16.0 | 22.0 | 0.00 | 0.00 | 0.00 | 63 | 1014.2 |
| 20260906015414 | 90 | 205 | 4.0 | 8.0 | 0.00 | 0.00 | 0.00 | 64 | 1013.7 |
| 20260906014909 | 90 | 182 | 7.0 | 14.0 | 0.00 | 0.00 | 0.00 | 64 | 1013.4 |
| 20260906014408 | 90 | 169 | 5.0 | 12.0 | 0.00 | 0.00 | 0.00 | 64 | 1013.2 |
| 20260906013905 | 90 | 160 | 7.0 | 12.0 | 0.00 | 0.00 | 0.00 | 64 | 1013.0 |
| 20260906013400 | 90 | 155 | 9.0 | 15.0 | 0.00 | 0.00 | 0.00 | 63 | 1012.7 |
| 20260906012855 | 90 | 152 | 8.0 | 15.0 | 0.00 | 0.00 | 0.00 | 63 | 1012.7 |
| 20260906012350 | 90 | 169 | 8.0 | 15.0 | 0.00 | 0.00 | 0.00 | 62 | 1012.4 |
| 20260906011850 | 91 | 150 | 9.0 | 12.0 | 0.00 | 0.00 | 0.00 | 61 | 1012.4 |
| 20260906011344 | 91 | 141 | 12.0 | 17.0 | 0.00 | 0.00 | 0.00 | 61 | 1012.2 |
| 20260906010840 | 91 | 140 | 13.0 | 17.0 | 0.00 | 0.00 | 0.00 | 60 | 1012.1 |
| 20260906010336 | 91 | 134 | 6.0 | 19.0 | 0.00 | 0.00 | 0.00 | 60 | 1012.0 |
| 20260906005832 | 91 | 175 | 7.0 | 17.0 | 0.00 | 0.00 | 0.00 | 58 | 1011.8 |
| 20260906005331 | 92 | 134 | 9.0 | 12.0 | 0.00 | 0.00 | 0.00 | 58 | 1011.6 |
| 20260906004830 | 92 | 138 | 11.0 | 15.0 | 0.00 | 0.00 | 0.00 | 57 | 1011.7 |
| 20260906004330 | 92 | 158 | 9.0 | 14.0 | 0.00 | 0.00 | 0.00 | 57 | 1011.6 |
| 20260906003825 | 93 | 152 | 9.0 | 16.0 | 0.00 | 0.00 | 0.00 | 56 | 1011.4 |
| 20260906003320 | 93 | 137 | 10.0 | 20.0 | 0.00 | 0.00 | 0.00 | 56 | 1011.2 |
| 20260906002816 | 93 | 145 | 9.0 | 15.0 | 0.00 | 0.00 | 0.00 | 55 | 1011.3 |
| 20260906002315 | 93 | 144 | 11.0 | 23.0 | 0.00 | 0.00 | 0.00 | 55 | 1011.1 |
| 20260906001811 | 94 | 148 | 9.0 | 15.0 | 0.00 | 0.00 | 0.00 | 53 | 1011.0 |
| 20260906001307 | 94 | 160 | 9.0 | 17.0 | 0.00 | 0.00 | 0.00 | 52 | 1010.9 |
| 20260906000807 | 94 | 139 | 9.0 | 16.0 | 0.00 | 0.00 | 0.00 | 52 | 1010.8 |
| 20260906000303 | 95 | 146 | 10.0 | 17.0 | 0.00 | 0.00 | 0.00 | 51 | 1010.6 |
| 20260905235756 | 95 | 159 | 7.0 | 14.0 | 0.00 | 0.00 | 0.00 | 50 | 1010.5 |
| 20260905235256 | 95 | 173 | 6.0 | 16.0 | 0.00 | 0.00 | 0.00 | 50 | 1010.3 |
| 20260905234751 | 96 | 161 | 8.0 | 15.0 | 0.00 | 0.00 | 0.00 | 49 | 1010.2 |
| 20260905234246 | 96 | 136 | 12.0 | 15.0 | 0.00 | 0.00 | 0.00 | 49 | 1009.9 |
| 20260905233742 | 96 | 147 | 10.0 | 19.0 | 0.00 | 0.00 | 0.00 | 49 | 1009.9 |
| 20260905233241 | 96 | 143 | 10.0 | 15.0 | 0.00 | 0.00 | 0.00 | 49 | 1010.0 |
| 20260905232736 | 96 | 156 | 9.0 | 14.0 | 0.00 | 0.00 | 0.00 | 48 | 1009.9 |
| 20260905232232 | 96 | 142 | 13.0 | 17.0 | 0.00 | 0.00 | 0.00 | 48 | 1009.9 |
| 20260905231727 | 97 | 154 | 8.0 | 16.0 | 0.00 | 0.00 | 0.00 | 48 | 1009.6 |
| 20260905231223 | 97 | 148 | 8.0 | 16.0 | 0.00 | 0.00 | 0.00 | 47 | 1009.7 |
| 20260905230719 | 97 | 125 | 9.0 | 15.0 | 0.00 | 0.00 | 0.00 | 46 | 1009.8 |
| 20260905230216 | 97 | 179 | 5.0 | 12.0 | 0.00 | 0.00 | 0.00 | 46 | 1009.9 |
| 20260905225716 | 98 | 134 | 7.0 | 16.0 | 0.00 | 0.00 | 0.00 | 45 | 1009.7 |
| 20260905225212 | 97 | 148 | 11.0 | 15.0 | 0.00 | 0.00 | 0.00 | 45 | 1009.7 |
| 20260905224711 | 98 | 132 | 11.0 | 18.0 | 0.00 | 0.00 | 0.00 | 44 | 1009.4 |
| 20260905224206 | 98 | 184 | 5.0 | 16.0 | 0.00 | 0.00 | 0.00 | 44 | 1009.5 |
| 20260905223703 | 98 | 151 | 12.0 | 20.0 | 0.00 | 0.00 | 0.00 | 43 | 1009.5 |
| 20260905223159 | 98 | 146 | 7.0 | 11.0 | 0.00 | 0.00 | 0.00 | 42 | 1009.8 |
| 20260905222654 | 99 | 146 | 13.0 | 17.0 | 0.00 | 0.00 | 0.00 | 42 | 1009.2 |
| 20260905222154 | 99 | 141 | 11.0 | 15.0 | 0.00 | 0.00 | 0.00 | 42 | 1009.5 |
| 20260905221649 | 100 | 129 | 10.0 | 20.0 | 0.00 | 0.00 | 0.00 | 41 | 1009.3 |
| 20260905221146 | 100 | 141 | 13.0 | 18.0 | 0.00 | 0.00 | 0.00 | 39 | 1009.3 |
| 20260905220641 | 100 | 140 | 9.0 | 14.0 | 0.00 | 0.00 | 0.00 | 39 | 1009.2 |
| 20260905220137 | 100 | 130 | 7.0 | 16.0 | 0.00 | 0.00 | 0.00 | 38 | 1009.3 |
| 20260905215637 | 101 | 140 | 13.0 | 18.0 | 0.00 | 0.00 | 0.00 | 38 | 1009.2 |
| 20260905215138 | 100 | 113 | 3.0 | 12.0 | 0.00 | 0.00 | 0.00 | 38 | 1009.3 |
| 20260905214635 | 101 | 131 | 9.0 | 13.0 | 0.00 | 0.00 | 0.00 | 38 | 1009.3 |
| 20260905214135 | 100 | 176 | 5.0 | 11.0 | 0.00 | 0.00 | 0.00 | 39 | 1009.6 |
| 20260905213630 | 101 | 137 | 9.0 | 14.0 | 0.00 | 0.00 | 0.00 | 38 | 1009.4 |
| 20260905213125 | 101 | 144 | 10.0 | 15.0 | 0.00 | 0.00 | 0.00 | 38 | 1009.4 |
| 20260905212620 | 101 | 146 | 12.0 | 16.0 | 0.00 | 0.00 | 0.00 | 38 | 1009.7 |
| 20260905212114 | 101 | 152 | 8.0 | 13.0 | 0.00 | 0.00 | 0.00 | 39 | 1009.8 |
| 20260905211609 | 101 | 158 | 6.0 | 9.0 | 0.00 | 0.00 | 0.00 | 39 | 1009.9 |
| 20260905211104 | 100 | 137 | 7.0 | 16.0 | 0.00 | 0.00 | 0.00 | 40 | 1010.2 |
| 20260905210601 | 100 | 172 | 7.0 | 18.0 | 0.00 | 0.00 | 0.00 | 41 | 1010.1 |
| 20260905210055 | 100 | 142 | 10.0 | 14.0 | 0.00 | 0.00 | 0.00 | 38 | 1010.2 |
| 20260905205554 | 101 | 159 | 7.0 | 20.0 | 0.00 | 0.00 | 0.00 | 39 | 1010.1 |
| 20260905205054 | 101 | 162 | 7.0 | 9.0 | 0.00 | 0.00 | 0.00 | 39 | 1010.2 |
| 20260905204549 | 101 | 186 | 7.0 | 15.0 | 0.00 | 0.00 | 0.00 | 36 | 1010.4 |
| 20260905204044 | 101 | 127 | 9.0 | 13.0 | 0.00 | 0.00 | 0.00 | 36 | 1010.4 |
| 20260905203543 | 100 | 139 | 7.0 | 14.0 | 0.00 | 0.00 | 0.00 | 37 | 1010.5 |
| 20260905203039 | 101 | 149 | 6.0 | 12.0 | 0.00 | 0.00 | 0.00 | 38 | 1010.7 |
| 20260905202535 | 101 | 148 | 8.0 | 14.0 | 0.00 | 0.00 | 0.00 | 38 | 1010.5 |
| 20260905202030 | 100 | 139 | 4.0 | 12.0 | 0.00 | 0.00 | 0.00 | 39 | 1010.9 |
| 20260905201526 | 100 | 147 | 4.0 | 5.0 | 0.00 | 0.00 | 0.00 | 39 | 1010.9 |
| 20260905201025 | 100 | 173 | 5.0 | 15.0 | 0.00 | 0.00 | 0.00 | 39 | 1011.0 |
| 20260905200520 | 100 | 217 | 5.0 | 9.0 | 0.00 | 0.00 | 0.00 | 40 | 1011.2 |
| 20260905200020 | 99 | 134 | 6.0 | 9.0 | 0.00 | 0.00 | 0.00 | 41 | 1011.3 |
| 20260905195514 | 100 | 156 | 8.0 | 11.0 | 0.00 | 0.00 | 0.00 | 40 | 1011.4 |
| 20260905195010 | 100 | 244 | 2.0 | 6.0 | 0.00 | 0.00 | 0.00 | 39 | 1011.5 |
| 20260905194509 | 99 | 178 | 6.0 | 9.0 | 0.00 | 0.00 | 0.00 | 40 | 1011.7 |
| 20260905194004 | 100 | 177 | 9.0 | 10.0 | 0.00 | 0.00 | 0.00 | 42 | 1011.7 |
| 20260905193504 | 100 | 165 | 8.0 | 11.0 | 0.00 | 0.00 | 0.00 | 42 | 1011.8 |
| 20260905192959 | 99 | 137 | 7.0 | 13.0 | 0.00 | 0.00 | 0.00 | 42 | 1011.8 |
| 20260905192454 | 99 | 149 | 6.0 | 11.0 | 0.00 | 0.00 | 0.00 | 44 | 1011.7 |
| 20260905191950 | 99 | 177 | 4.0 | 9.0 | 0.00 | 0.00 | 0.00 | 43 | 1011.9 |
| 20260905191449 | 99 | 178 | 6.0 | 10.0 | 0.00 | 0.00 | 0.00 | 43 | 1012.0 |
| 20260905190948 | 99 | 131 | 9.0 | 12.0 | 0.00 | 0.00 | 0.00 | 44 | 1012.1 |
| 20260905190447 | 98 | 241 | 2.0 | 8.0 | 0.00 | 0.00 | 0.00 | 46 | 1012.0 |
| 20260905185945 | 97 | 160 | 4.0 | 10.0 | 0.00 | 0.00 | 0.00 | 46 | 1012.3 |
| 20260905185441 | 98 | 132 | 3.0 | 10.0 | 0.00 | 0.00 | 0.00 | 45 | 1012.4 |
| 20260905184940 | 97 | 179 | 6.0 | 9.0 | 0.00 | 0.00 | 0.00 | 48 | 1012.5 |
| 20260905184440 | 97 | 173 | 3.0 | 7.0 | 0.00 | 0.00 | 0.00 | 47 | 1012.5 |
| 20260905183938 | 97 | 143 | 9.0 | 12.0 | 0.00 | 0.00 | 0.00 | 47 | 1012.4 |
| 20260905183433 | 96 | 162 | 8.0 | 9.0 | 0.00 | 0.00 | 0.00 | 49 | 1012.4 |
| 20260905182928 | 96 | 176 | 3.0 | 10.0 | 0.00 | 0.00 | 0.00 | 49 | 1012.6 |
| 20260905182427 | 96 | 175 | 8.0 | 15.0 | 0.00 | 0.00 | 0.00 | 50 | 1012.7 |
| 20260905181923 | 96 | 184 | 6.0 | 9.0 | 0.00 | 0.00 | 0.00 | 50 | 1012.9 |
| 20260905181418 | 97 | 147 | 6.0 | 13.0 | 0.00 | 0.00 | 0.00 | 48 | 1012.9 |
| 20260905180917 | 97 | 182 | 10.0 | 12.0 | 0.00 | 0.00 | 0.00 | 50 | 1012.9 |
| 20260905180412 | 97 | 206 | 3.0 | 10.0 | 0.00 | 0.00 | 0.00 | 48 | 1013.0 |
| 20260905175907 | 98 | 145 | 6.0 | 8.0 | 0.00 | 0.00 | 0.00 | 48 | 1012.9 |
| 20260905175406 | 97 | 161 | 6.0 | 10.0 | 0.00 | 0.00 | 0.00 | 48 | 1013.2 |
| 20260905174901 | 96 | 185 | 9.0 | 10.0 | 0.00 | 0.00 | 0.00 | 49 | 1013.3 |
| 20260905174357 | 96 | 182 | 7.0 | 8.0 | 0.00 | 0.00 | 0.00 | 52 | 1013.3 |
| 20260905173852 | 95 | 145 | 6.0 | 16.0 | 0.00 | 0.00 | 0.00 | 52 | 1013.6 |
| 20260905173349 | 96 | 146 | 10.0 | 14.0 | 0.00 | 0.00 | 0.00 | 51 | 1013.4 |
| 20260905172843 | 96 | 187 | 7.0 | 10.0 | 0.00 | 0.00 | 0.00 | 51 | 1013.5 |
| 20260905172342 | 96 | 186 | 4.0 | 10.0 | 0.00 | 0.00 | 0.00 | 51 | 1013.5 |
| 20260905171838 | 95 | 179 | 5.0 | 12.0 | 0.00 | 0.00 | 0.00 | 52 | 1013.7 |
| 20260905171335 | 95 | 132 | 6.0 | 9.0 | 0.00 | 0.00 | 0.00 | 53 | 1013.5 |
| 20260905170830 | 95 | 188 | 6.0 | 10.0 | 0.00 | 0.00 | 0.00 | 53 | 1013.8 |
| 20260905170326 | 95 | 194 | 5.0 | 8.0 | 0.00 | 0.00 | 0.00 | 54 | 1013.8 |
| 20260905165825 | 95 | 137 | 7.0 | 13.0 | 0.00 | 0.00 | 0.00 | 54 | 1013.8 |
| 20260905165321 | 94 | 191 | 10.0 | 10.0 | 0.00 | 0.00 | 0.00 | 55 | 1014.0 |
| 20260905164820 | 95 | 173 | 5.0 | 10.0 | 0.00 | 0.00 | 0.00 | 55 | 1013.9 |
| 20260905164315 | 93 | 181 | 6.0 | 10.0 | 0.00 | 0.00 | 0.00 | 57 | 1013.8 |
| 20260905163811 | 93 | 168 | 5.0 | 11.0 | 0.00 | 0.00 | 0.00 | 57 | 1013.9 |
| 20260905163307 | 93 | 172 | 3.0 | 12.0 | 0.00 | 0.00 | 0.00 | 56 | 1013.9 |
| 20260905162803 | 94 | 194 | 5.0 | 14.0 | 0.00 | 0.00 | 0.00 | 57 | 1014.1 |
| 20260905162257 | 93 | 189 | 6.0 | 8.0 | 0.00 | 0.00 | 0.00 | 58 | 1014.1 |
| 20260905161751 | 92 | 174 | 6.0 | 8.0 | 0.00 | 0.00 | 0.00 | 61 | 1013.9 |
| 20260905161250 | 92 | 178 | 11.0 | 13.0 | 0.00 | 0.00 | 0.00 | 60 | 1014.1 |
| 20260905160748 | 92 | 175 | 6.0 | 8.0 | 0.00 | 0.00 | 0.00 | 61 | 1014.2 |
| 20260905160243 | 91 | 151 | 9.0 | 13.0 | 0.00 | 0.00 | 0.00 | 62 | 1014.2 |
| 20260905155739 | 92 | 141 | 6.0 | 13.0 | 0.00 | 0.00 | 0.00 | 62 | 1014.3 |
| 20260905155237 | 92 | 174 | 7.0 | 9.0 | 0.00 | 0.00 | 0.00 | 61 | 1014.3 |
| 20260905154731 | 91 | 180 | 6.0 | 9.0 | 0.00 | 0.00 | 0.00 | 63 | 1014.2 |
| 20260905154228 | 90 | 201 | 5.0 | 10.0 | 0.00 | 0.00 | 0.00 | 64 | 1014.4 |
| 20260905153722 | 90 | 189 | 8.0 | 10.0 | 0.00 | 0.00 | 0.00 | 65 | 1014.4 |
| 20260905153218 | 90 | 190 | 6.0 | 9.0 | 0.00 | 0.00 | 0.00 | 67 | 1014.2 |
| 20260905152713 | 89 | 188 | 10.0 | 13.0 | 0.00 | 0.00 | 0.00 | 67 | 1014.3 |
| 20260905152208 | 89 | 166 | 5.0 | 10.0 | 0.00 | 0.00 | 0.00 | 69 | 1014.4 |
| 20260905151707 | 89 | 160 | 5.0 | 6.0 | 0.00 | 0.00 | 0.00 | 69 | 1014.5 |
| 20260905151204 | 88 | 179 | 6.0 | 10.0 | 0.00 | 0.00 | 0.00 | 70 | 1014.6 |
| 20260905150658 | 87 | 149 | 6.0 | 12.0 | 0.00 | 0.00 | 0.00 | 72 | 1014.4 |
| 20260905150156 | 87 | 166 | 4.0 | 8.0 | 0.00 | 0.00 | 0.00 | 72 | 1014.4 |
| 20260905145655 | 87 | 169 | 4.0 | 12.0 | 0.00 | 0.00 | 0.00 | 72 | 1014.4 |
| 20260905145154 | 88 | 190 | 5.0 | 7.0 | 0.00 | 0.00 | 0.00 | 72 | 1014.4 |
| 20260905144648 | 88 | 175 | 4.0 | 8.0 | 0.00 | 0.00 | 0.00 | 72 | 1014.4 |
| 20260905144143 | 87 | 151 | 4.0 | 14.0 | 0.00 | 0.00 | 0.00 | 73 | 1014.4 |
| 20260905143643 | 87 | 182 | 4.0 | 8.0 | 0.00 | 0.00 | 0.00 | 74 | 1014.4 |
| 20260905143143 | 87 | 177 | 4.0 | 9.0 | 0.00 | 0.00 | 0.00 | 74 | 1014.4 |
| 20260905142641 | 87 | 156 | 7.0 | 11.0 | 0.00 | 0.00 | 0.00 | 76 | 1014.3 |
| 20260905142136 | 86 | 182 | 8.0 | 9.0 | 0.00 | 0.00 | 0.00 | 77 | 1014.4 |
| 20260905141630 | 86 | 171 | 5.0 | 10.0 | 0.00 | 0.00 | 0.00 | 77 | 1014.3 |
| 20260905141127 | 86 | 153 | 4.0 | 9.0 | 0.00 | 0.00 | 0.00 | 77 | 1014.5 |
| 20260905140622 | 86 | 169 | 3.0 | 6.0 | 0.00 | 0.00 | 0.00 | 78 | 1014.3 |
| 20260905140121 | 85 | 182 | 3.0 | 8.0 | 0.00 | 0.00 | 0.00 | 79 | 1014.4 |
| 20260905135616 | 85 | 152 | 4.0 | 16.0 | 0.00 | 0.00 | 0.00 | 79 | 1014.1 |
| 20260905135112 | 85 | 154 | 4.0 | 12.0 | 0.00 | 0.00 | 0.00 | 80 | 1014.0 |
| 20260905134606 | 84 | 149 | 4.0 | 9.0 | 0.00 | 0.00 | 0.00 | 81 | 1013.8 |
| 20260905134104 | 84 | 153 | 4.0 | 10.0 | 0.00 | 0.00 | 0.00 | 81 | 1013.9 |
| 20260905133600 | 84 | 151 | 5.0 | 7.0 | 0.00 | 0.00 | 0.00 | 82 | 1013.8 |
| 20260905133054 | 84 | 140 | 5.0 | 9.0 | 0.00 | 0.00 | 0.00 | 82 | 1013.8 |
| 20260905132554 | 83 | 154 | 6.0 | 9.0 | 0.00 | 0.00 | 0.00 | 83 | 1013.8 |
| 20260905132049 | 83 | 141 | 6.0 | 8.0 | 0.00 | 0.00 | 0.00 | 84 | 1013.8 |
| 20260905131544 | 83 | 147 | 5.0 | 8.0 | 0.00 | 0.00 | 0.00 | 84 | 1013.6 |
| 20260905131040 | 82 | 165 | 3.0 | 6.0 | 0.00 | 0.00 | 0.00 | 84 | 1013.5 |
| 20260905130539 | 82 | 160 | 4.0 | 5.0 | 0.00 | 0.00 | 0.00 | 85 | 1013.5 |
| 20260905130034 | 82 | 155 | 3.0 | 6.0 | 0.00 | 0.00 | 0.00 | 85 | 1013.4 |
| 20260905125534 | 82 | 149 | 7.0 | 8.0 | 0.00 | 0.00 | 0.00 | 85 | 1013.2 |
| 20260905125029 | 82 | 187 | 5.0 | 5.0 | 0.00 | 0.00 | 0.00 | 85 | 1013.4 |
| 20260905124526 | 82 | 164 | 4.0 | 7.0 | 0.00 | 0.00 | 0.00 | 85 | 1013.2 |
| 20260905124021 | 82 | 164 | 3.0 | 4.0 | 0.00 | 0.00 | 0.00 | 85 | 1013.2 |
| 20260905123517 | 82 | 180 | 2.0 | 5.0 | 0.00 | 0.00 | 0.00 | 85 | 1013.1 |
| 20260905123014 | 82 | 164 | 3.0 | 4.0 | 0.00 | 0.00 | 0.00 | 85 | 1013.0 |
| 20260905122513 | 82 | 187 | 2.0 | 4.0 | 0.00 | 0.00 | 0.00 | 85 | 1013.0 |
| 20260905122008 | 82 | 163 | 4.0 | 5.0 | 0.00 | 0.00 | 0.00 | 85 | 1012.9 |
| 20260905121503 | 82 | 151 | 2.0 | 4.0 | 0.00 | 0.00 | 0.00 | 85 | 1012.9 |
| 20260905121002 | 82 | 158 | 4.0 | 6.0 | 0.00 | 0.00 | 0.00 | 85 | 1012.9 |
| 20260905120456 | 82 | 171 | 4.0 | 5.0 | 0.00 | 0.00 | 0.00 | 85 | 1013.0 |
| 20260905115952 | 82 | 155 | 3.0 | 6.0 | 0.00 | 0.00 | 0.00 | 85 | 1012.8 |
| 20260905115451 | 82 | 195 | 3.0 | 7.0 | 0.00 | 0.00 | 0.00 | 85 | 1012.7 |
| 20260905114946 | 82 | 194 | 2.0 | 5.0 | 0.00 | 0.00 | 0.00 | 85 | 1012.5 |
| 20260905114445 | 82 | 185 | 2.0 | 6.0 | 0.00 | 0.00 | 0.00 | 84 | 1012.7 |
| 20260905113944 | 82 | 156 | 5.0 | 7.0 | 0.00 | 0.00 | 0.00 | 84 | 1012.9 |
| 20260905113440 | 82 | 170 | 2.0 | 6.0 | 0.00 | 0.00 | 0.00 | 84 | 1012.7 |
| 20260905112935 | 82 | 182 | 4.0 | 4.0 | 0.00 | 0.00 | 0.00 | 84 | 1012.7 |
| 20260905112430 | 83 | 191 | 3.0 | 4.0 | 0.00 | 0.00 | 0.00 | 84 | 1012.4 |
| 20260905111925 | 82 | 159 | 3.0 | 5.0 | 0.00 | 0.00 | 0.00 | 84 | 1012.5 |
| 20260905111420 | 83 | 163 | 3.0 | 6.0 | 0.00 | 0.00 | 0.00 | 84 | 1012.4 |
| 20260905110920 | 83 | 165 | 3.0 | 6.0 | 0.00 | 0.00 | 0.00 | 84 | 1012.4 |
| 20260905110414 | 83 | 149 | 5.0 | 7.0 | 0.00 | 0.00 | 0.00 | 84 | 1012.6 |
| 20260905105909 | 83 | 148 | 4.0 | 6.0 | 0.00 | 0.00 | 0.00 | 84 | 1012.5 |
| 20260905105408 | 83 | 164 | 4.0 | 8.0 | 0.00 | 0.00 | 0.00 | 84 | 1012.6 |
| 20260905104908 | 83 | 160 | 2.0 | 7.0 | 0.00 | 0.00 | 0.00 | 84 | 1012.5 |
| 20260905104404 | 83 | 178 | 2.0 | 6.0 | 0.00 | 0.00 | 0.00 | 84 | 1012.6 |
| 20260905103858 | 83 | 164 | 3.0 | 6.0 | 0.00 | 0.00 | 0.00 | 84 | 1012.7 |
| 20260905103354 | 83 | 158 | 4.0 | 5.0 | 0.00 | 0.00 | 0.00 | 84 | 1012.7 |
| 20260905102850 | 83 | 180 | 3.0 | 5.0 | 0.00 | 0.00 | 0.00 | 84 | 1012.9 |
| 20260905102346 | 83 | 164 | 5.0 | 8.0 | 0.00 | 0.00 | 0.00 | 84 | 1012.8 |
| 20260905101840 | 83 | 157 | 5.0 | 6.0 | 0.00 | 0.00 | 0.00 | 84 | 1012.6 |
| 20260905101338 | 83 | 159 | 6.0 | 6.0 | 0.00 | 0.00 | 0.00 | 84 | 1012.6 |
| 20260905100832 | 83 | 185 | 1.0 | 5.0 | 0.00 | 0.00 | 0.00 | 83 | 1012.7 |
| 20260905100329 | 83 | 163 | 3.0 | 5.0 | 0.00 | 0.00 | 0.00 | 83 | 1012.6 |
| 20260905095828 | 83 | 185 | 2.0 | 5.0 | 0.00 | 0.00 | 0.00 | 83 | 1012.7 |